Showing default

GESAT GEN 1, 62612

Orbit data source: Space-Track

GESAT GEN 1, 62612 is a French payload satellite in SSO that was launched on Tue, 14 Jan 2025 UTC via an FALCON 9 launch vehicle from the Air Force Western Test Range (AFWTR). Payload-class satellites include a variety of spacecraft equipped with specific instruments for various scientific and technological missions. These include communications satellites like Starlink; space stations such as the ISS; scientific satellites like the Hubble; Earth observation satellites from companies like Planet Labs, Umbra, and HawkEye 360; GPS; miniature CubeSats for education and research; and military/defense satellites.

Loading next visibility...
Identifier
62612, 2025-009D
Orbit
SSO
Country
Flag of FRFR
Related business
Manufacturer
NanoAvionics
Mission
Operational Commercial Earth Obs Sci
Bus & Motor
CUBESAT 16U MP42, Unknown motor
Mass
30 kg wet, 30 kg dry
Launch date (UTC)
2025-01-14 (10 months ago)
Launch vehicle
FALCON 9
Launch site
Air Force Western Test Range (AFWTR)
Object type
Payload
Rocket body
Debris
Shape & HBR
Box + 2 Pan, 0.3 m
Radar Cross Section
0.146 m², Medium (>0.1 m² and < 1m²)

Expand to show TLE details & history
Last TLE update: 17 hours ago

TLE from 17 hours ago
0 GESAT GEN 1
1 62612U 25009D   25308.69985405  .00009063  00000-0  37764-3 0  9995
2 62612  97.4236  27.5352 0001537  73.3558 286.7848 15.23938252 44675
Epoch: 2025-11-04T16:47Z
TLE epoch observation values (Epoch: 2025-11-04T16:47:47.389Z)
Latitude
-0.00004°
Longitude
91.40463°
Altitude
496.766 km
Speed
7.616 km/s
True Right ascension
01h 50m 08s
True Declination
0° 00' 00"
Sunlit
Object was in full shadow at epoch
Visualization orbit readout
Latitude
Unknown
Longitude
Unknown
Altitude
Unknown
Speed
Unknown
Apparent Right ascension
Unknown
Apparent Declination
Unknown
Sunlit
N/A
Visualization observer readout
Local Sidereal Time
05:49:14
Azimuth
Unknown
Elevation
Unknown
Doppler factor
Unknown
Orbital elements
Apogee altitude
491.993 km
Perigee altitude
489.881 km
Semi-major axis
6,869.074 km
Eccentricity
0.00015
Inclination
97.4236°
RAAN
27.5352°
Arg. of periapsis
73.3558°
True anomaly
286.76794°
Mean anomaly
286.7848°
Eccentric anomaly
286.77637°
Mean motion
3.81238 °/min
Orbital period
94.43 mins
BSTAR
0.00037764
Loading maneuver chart data...
Computing Atmospheric mass density...
Loading historical data...
Loading historical data...
Loading historical data...
Loading historical data...
Loading historical data...
Loading historical data...
Loading historical data...

Documentation

Showing up to 5 results
|